Regional Weather Roundup
Issued by NWS

Home | Current Version | Previous Version | Graphics & Text | Print | Product List | Glossary On
Versions: 1 2 3 4 5 6 7 8 9 10 11 12 13 14 15 16 17 18 19 20 21 22 23 24 25 26 27 28 29 30 31 32 33 34 35 36 37 38 39 40 41 42 43 44 45 46 47 48 49 50
000
ASUS43 KLMK 240902
RWRKY
KENTUCKY REGIONAL WEATHER ROUNDUP
NATIONAL WEATHER SERVICE LOUISVILLE KY
500 AM EDT WED MAY 24 2017

NOTE "FAIR" INDICATES FEW OR NO CLOUDS BELOW 12,000 FEET
WITH NO SIGNIFICANT WEATHER AND/OR OBSTRUCTIONS TO VISIBILITY.

KYZ001>023-026-027-061>063-070>075-241000-
WESTERN AND SOUTH CENTRAL KENTUCKY

CITY           SKY/WX    TMP DP  RH WIND       PRES   REMARKS
PADUCAH        LGT RAIN  59  54  83 NW6       29.59F
HENDERSON      RAIN      62  58  86 NW7       29.57F
OWENSBORO      LGT RAIN  64  58  80 NW8       29.55F
HOPKINSVILLE   DRIZZLE   62  59  89 CALM      29.55F
BOWLING GREEN  CLOUDY    64  60  87 CALM      29.54F
GLASGOW        NOT AVBL
$$

KYZ024-025-028>034-038-045-046-053-241000-
NORTH CENTRAL KENTUCKY

CITY           SKY/WX    TMP DP  RH WIND       PRES   REMARKS
LOUISVILLE/SDF CLOUDY    64  59  83 SE7       29.54S
LOUISVILLE/LOU CLOUDY    63  60  90 VRB5      29.55S
FORT KNOX      CLOUDY    61  57  86 CALM      29.53F
$$

KYZ035>037-039>044-047>052-055>060-089>105-241000-
NORTHEAST KENTUCKY

CITY           SKY/WX    TMP DP  RH WIND       PRES   REMARKS
LEXINGTON      CLOUDY    59  56  89 S7        29.58F
COVINGTON      MOCLDY    60  58  92 SE5       29.55F
FRANKFORT      CLOUDY    61  57  87 S3        29.55F
$$

KYZ054-064>069-076>088-106>120-241000-
SOUTHEAST KENTUCKY

CITY           SKY/WX    TMP DP  RH WIND       PRES   REMARKS
JACKSON        FOG       59  58  96 CALM      29.60S VSB 1/2
LONDON         FOG       56  55  97 S3        29.59F VSB 1/4
SOMERSET       NOT AVBL
MIDDLESBORO    CLOUDY    58  58 100 CALM      29.61F FOG
MONTICELLO     PTSUNNY   57  56  96 N9        29.59F
$$





USA.gov is the U.S. government's official web portal to all federal, state and local government web resources and services.